DeLand, FL

12:22 AM EDT on June 26, 2017 (GMT -0400)
De Land Municipal-Taylor

Weather History for KDED - February, 2013

Change the Weather History Date:

Wednesday, February 13, 2013

  Actual Average Record
Temperature  
Mean Temperature 72 °F -  
Max Temperature 82 °F 71 °F 82 °F (2013)
Min Temperature 62 °F 44 °F 41 °F (2014)
Cooling Degree Days 7    
Growing Degree Days 22 (Base 50)    
Moisture  
Dew Point 66 °F    
Average Humidity 84    
Maximum Humidity 100    
Minimum Humidity 54    
Precipitation  
Precipitation 0.00 in - - ()
Sea Level Pressure  
Sea Level Pressure 29.92 in    
Wind  
Wind Speed 11 mph (SW)    
Max Wind Speed 23 mph    
Max Gust Speed 28 mph    
Averages and records for this station are not official NWS values.
T = Trace of Precipitation, MM = Missing Value Source: NWS Daily Summary

Daily Weather History Graph

Daily Weather History Graph

Search for Another Location

Airport or City:

Trip Planner

Search our weather history database for the weather conditions in past years. The results will help you decide how hot, cold, wet, or windy it might be!

Date:

Astronomy

Feb. 13, 2013 Rise Set
Actual Time 7:05 AM EST 6:13 PM EST
Civil Twilight 6:41 AM EST 6:37 PM EST
Nautical Twilight 6:13 AM EST 7:05 PM EST
Astronomical Twilight 5:45 AM EST 7:33 PM EST
Moon 8:55 AM EST (2/13) 9:50 PM EST (2/13)
Length of Visible Light 11h 56m
Length of Day
11h 08m
Waxing Crescent, 13% of the Moon is Illuminated
Feb 13
Waxing Crescent
Feb 17
First Quarter
Feb 25
Full
Mar 4
Last Quarter
Mar 11
New

Hourly Weather History & Observations

Time (EST) Temp. Heat Index Dew Point Humidity Pressure Visibility Wind Dir Wind Speed Gust Speed Precip Events Conditions
12:15 AM 69.8 °F - 66.2 °F 88% 29.95 in - SSW 11.5 mph - N/A   Unknown
12:35 AM 69.8 °F - 66.2 °F 88% 29.95 in - SSW 10.4 mph - N/A   Unknown
12:55 AM 69.8 °F - 66.2 °F 88% 29.94 in - SSW 12.7 mph - N/A   Unknown
1:15 AM 69.8 °F - 66.2 °F 88% 29.95 in - SSW 10.4 mph - N/A   Unknown
1:35 AM 69.8 °F - 66.2 °F 88% 29.94 in - SSW 10.4 mph - N/A   Unknown
1:55 AM 69.8 °F - 66.2 °F 88% 29.94 in - SSW 10.4 mph - N/A   Unknown
2:15 AM 69.8 °F - 66.2 °F 88% 29.94 in - SSW 12.7 mph - N/A   Unknown
2:35 AM 69.8 °F - 66.2 °F 88% 29.93 in - South 11.5 mph - N/A   Unknown
2:55 AM 69.8 °F - 66.2 °F 88% 29.92 in - SSW 9.2 mph - N/A   Mostly Cloudy
3:15 AM 69.8 °F - 66.2 °F 88% 29.92 in - SSW 10.4 mph - N/A   Mostly Cloudy
3:35 AM 69.8 °F - 66.2 °F 88% 29.91 in - SSW 10.4 mph - N/A   Unknown
3:55 AM 69.8 °F - 66.2 °F 88% 29.91 in - SSW 11.5 mph - N/A   Unknown
4:15 AM 69.8 °F - 66.2 °F 88% 29.91 in - SSW 11.5 mph - N/A   Unknown
4:35 AM 69.8 °F - 66.2 °F 88% 29.91 in - SSW 9.2 mph - N/A   Unknown
4:55 AM 69.8 °F - 66.2 °F 88% 29.91 in - SSW 10.4 mph - N/A   Mostly Cloudy
5:15 AM 69.8 °F - 68.0 °F 94% 29.91 in - SSW 11.5 mph - N/A   Mostly Cloudy
5:35 AM 71.6 °F - 68.0 °F 88% 29.92 in - SSW 10.4 mph - N/A   Mostly Cloudy
5:55 AM 71.6 °F - 68.0 °F 88% 29.92 in - SSW 9.2 mph 18.4 mph N/A   Mostly Cloudy
6:15 AM 71.6 °F - 68.0 °F 88% 29.92 in - SSW 12.7 mph - N/A   Mostly Cloudy
6:55 AM 71.6 °F - 68.0 °F 88% 29.92 in - SSW 13.8 mph - N/A   Overcast
7:15 AM 71.6 °F - 68.0 °F 88% 29.92 in - SSW 10.4 mph - N/A   Overcast
7:35 AM 71.6 °F - 68.0 °F 88% 29.93 in - SSW 9.2 mph - N/A   Overcast
7:55 AM 71.6 °F - 68.0 °F 88% 29.93 in - SSW 13.8 mph - N/A   Overcast
8:15 AM 71.6 °F - 68.0 °F 88% 29.94 in - SSW 16.1 mph - N/A   Overcast
8:35 AM 73.4 °F - 68.0 °F 83% 29.94 in - SSW 12.7 mph 19.6 mph N/A   Mostly Cloudy
8:55 AM 73.4 °F - 68.0 °F 83% 29.94 in - SSW 15.0 mph 19.6 mph N/A   Mostly Cloudy
9:15 AM 73.4 °F - 68.0 °F 83% 29.94 in - SSW 16.1 mph 23.0 mph N/A   Mostly Cloudy
9:35 AM 75.2 °F - 68.0 °F 78% 29.94 in - SSW 19.6 mph 24.2 mph N/A   Mostly Cloudy
9:55 AM 75.2 °F - 68.0 °F 78% 29.95 in - SW 18.4 mph 24.2 mph N/A   Overcast
10:15 AM 75.2 °F - 68.0 °F 78% 29.95 in - SSW 20.7 mph 27.6 mph N/A   Mostly Cloudy
10:35 AM 78.8 °F - 68.0 °F 69% 29.95 in - SSW 20.7 mph 25.3 mph N/A   Mostly Cloudy
10:55 AM 78.8 °F - 68.0 °F 69% 29.95 in - SW 19.6 mph 26.5 mph N/A   Mostly Cloudy
11:15 AM 80.6 °F 82.7 °F 66.2 °F 61% 29.94 in - SSW 23.0 mph 27.6 mph N/A   Scattered Clouds
11:55 AM 80.6 °F 82.7 °F 66.2 °F 61% 29.91 in - SSW 20.7 mph 27.6 mph N/A   Mostly Cloudy
12:15 PM 82.4 °F 84.6 °F 66.2 °F 58% 29.90 in - SSW 17.3 mph 25.3 mph N/A   Scattered Clouds
12:35 PM 82.4 °F 84.6 °F 66.2 °F 58% 29.89 in - SSW 18.4 mph 25.3 mph N/A   Partly Cloudy
12:55 PM 82.4 °F 84.6 °F 66.2 °F 58% 29.88 in - SW 15.0 mph 24.2 mph N/A   Partly Cloudy
1:15 PM 82.4 °F 83.9 °F 64.4 °F 54% 29.87 in - SW 15.0 mph 23.0 mph N/A   Partly Cloudy
1:35 PM 82.4 °F 83.9 °F 64.4 °F 54% 29.86 in - SW 11.5 mph - N/A   Partly Cloudy
1:55 PM 78.8 °F - 68.0 °F 69% 29.86 in - WSW 17.3 mph 26.5 mph N/A   Mostly Cloudy
2:15 PM 75.2 °F - 68.0 °F 78% 29.85 in - WSW 10.4 mph 18.4 mph N/A   Scattered Clouds
2:35 PM 75.2 °F - 66.2 °F 73% 29.85 in - SW 11.5 mph 18.4 mph N/A   Scattered Clouds
2:55 PM 75.2 °F - 66.2 °F 73% 29.85 in - WSW 10.4 mph 17.3 mph N/A   Mostly Cloudy
3:15 PM 73.4 °F - 66.2 °F 78% 29.86 in - West 11.5 mph 16.1 mph N/A   Scattered Clouds
3:35 PM 71.6 °F - 66.2 °F 83% 29.86 in - WNW 9.2 mph - N/A   Mostly Cloudy
3:55 PM 69.8 °F - 68.0 °F 94% 29.87 in - WSW 9.2 mph - N/A   Unknown
4:15 PM 71.6 °F - 69.8 °F 94% 29.86 in - WSW 5.8 mph - N/A   Unknown
4:35 PM 71.6 °F - 69.8 °F 94% 29.87 in - WSW 6.9 mph - N/A   Unknown
4:55 PM 71.6 °F - 69.8 °F 94% 29.88 in - WSW 8.1 mph - N/A   Mostly Cloudy
5:15 PM 71.6 °F - 69.8 °F 94% 29.88 in - West 5.8 mph - N/A   Mostly Cloudy
5:35 PM 71.6 °F - 69.8 °F 94% 29.88 in - West 9.2 mph - N/A   Unknown
5:55 PM 66.2 °F - 62.6 °F 88% 29.90 in - NW 12.7 mph - N/A   Unknown
6:15 PM 64.4 °F - 60.8 °F 88% 29.91 in - NNW 8.1 mph - N/A   Overcast
6:35 PM 64.4 °F - 60.8 °F 88% 29.91 in - Calm Calm - N/A   Unknown
6:55 PM 64.4 °F - 60.8 °F 88% 29.92 in - NW 9.2 mph - N/A   Unknown
7:15 PM 62.6 °F - 60.8 °F 94% 29.91 in - NNW 3.5 mph - N/A   Unknown
7:55 PM 62.6 °F - 60.8 °F 94% 29.93 in - SW 3.5 mph - N/A   Overcast
8:15 PM 62.6 °F - 60.8 °F 94% 29.93 in - Calm Calm - N/A   Mostly Cloudy
8:35 PM 64.4 °F - 62.6 °F 94% 29.95 in - SSW 5.8 mph - N/A   Mostly Cloudy
8:55 PM 64.4 °F - 60.8 °F 88% 29.96 in - Calm Calm - N/A   Unknown
9:15 PM 64.4 °F - 62.6 °F 94% 29.98 in - SW 6.9 mph - N/A   Unknown
9:55 PM 64.4 °F - 62.6 °F 94% 29.98 in - Calm Calm - N/A   Unknown
10:15 PM 62.6 °F - 62.6 °F 100% 29.99 in - Calm Calm - N/A   Unknown
10:35 PM 64.4 °F - 62.6 °F 94% 29.98 in - Calm Calm - N/A   Unknown
10:55 PM 64.4 °F - 62.6 °F 94% 29.98 in - SW 3.5 mph - N/A   Unknown
11:15 PM 64.4 °F - 62.6 °F 94% 29.98 in - SW 4.6 mph - N/A   Unknown
11:35 PM 64.4 °F - 62.6 °F 94% 29.98 in - Calm Calm - N/A   Unknown
11:55 PM 64.4 °F - 62.6 °F 94% 29.98 in - SSW 4.6 mph - N/A   Unknown